Regional Weather Roundup
Issued by NWS Bismarck, ND

Home | Current Version | Previous Version | Text Only | Print | Product List | Glossary On
Versions: 1 2 3 4 5 6 7 8 9 10 11 12 13 14 15 16 17 18 19 20 21 22 23 24 25 26 27 28 29 30 31 32 33 34 35 36 37 38 39 40 41 42 43 44 45 46 47 48 49 50
000
ASUS43 KBIS 311502
RWRBIS

NWR BROADCAST TEXT
NATIONAL WEATHER SERVICE BISMARCK ND
1000 AM CDT MON AUG 31 2015

NOTE: "FAIR" INDICATES FEW OR NO CLOUDS BELOW 12,000 FEET WITH NO
SIGNIFICANT WEATHER AND/OR OBSTRUCTIONS TO VISIBILITY.


CITY           SKY/WX    TMP DP  RH WIND       PRES   REMARKS
WILLISTON      SUNNY     64  49  57 W13       29.88R
MINOT          SUNNY     67  53  61 W12       29.81R
MINOT AFB      SUNNY     67  57  70 W8        29.80R
BISMARCK       PTSUNNY   69  59  70 N14G21    29.85R
DICKINSON      SUNNY     65  51  60 W17       29.91R
GARRISON         N/A     68  55  63 NW14      29.85R
HETTINGER ARPT PTSUNNY   63  51  65 NW10      29.95R
JAMESTOWN      PTSUNNY   72  65  78 N9        29.76R HAZE
HAZEN          FAIR      66  55  68 NW9       29.87R
OAKES            N/A     72  72 100 SW16G22   29.74R
STANLEY        FAIR      63  48  59 W15G30    29.86R
$$

CITY           SKY/WX    TMP DP  RH WIND       PRES   REMARKS
GRAND FORKS    CLOUDY    68  63  84 SW8       29.68R
GRAND FORKS AF CLOUDY    70  65  85 SW2       29.69R
DEVILS LAKE    PTSUNNY   68  55  64 NW17G24   29.75R
FARGO          SUNNY     74  61  63 S15       29.70S
CAVALIER       FAIR      70  66  88 NW7       29.70R FOG
GRAFTON        FAIR      72  70  94 NW5       29.68R
GWINNER        FAIR      75  63  64 SW15G28   29.73R
LANGDON        FAIR      68  61  77 NW14      29.74R
$$

CITY           SKY/WX    TMP DP  RH WIND       PRES   REMARKS
ABERDEEN       MOSUNNY   74  64  71 S18       29.75R
MOBRIDGE       CLOUDY    77  58  51 N21G33    29.78R
RAPID CITY     CLOUDY    64  55  72 N25G35    29.98R
GLASGOW        SUNNY     59  44  57 W5        29.88R
SIDNEY         SUNNY     64  46  52 SW12G20   29.89S
WOLF POINT     SUNNY     62  46  55 W13       29.89R
GLENDIVE       SUNNY     64  43  45 W12G18    29.94S
MILES CITY     SUNNY     63  49  60 W5        29.97R
BAKER          SUNNY     62  52  69 W7        29.98R
$$

CITY           SKY/WX    TMP DP  RH WIND       PRES   REMARKS
BILLINGS       MOSUNNY   59  44  57 S8        30.00S
GREAT FALLS    PTSUNNY   58  34  40 SW16G24   29.93R
$$



USA.gov is the U.S. government's official web portal to all federal, state and local government web resources and services.